Weather History for Adana, Turkey

Change the Weather History Date:

Wednesday, February 13, 2013

  Actual Average Record
Temperature  
Mean Temperature 54 °F -  
Max Temperature 66 °F 62 °F 74 °F (2014)
Min Temperature 42 °F 42 °F 35 °F (2005)
Degree Days  
Heating Degree Days 11    
Growing Degree Days 4 (Base 50)    
Moisture  
Dew Point 41 °F    
Average Humidity 64    
Maximum Humidity 93    
Minimum Humidity 34    
Precipitation  
Precipitation 0.00 in 0.11 in - ()
Sea Level Pressure  
Sea Level Pressure 30.15 in    
Wind  
Wind Speed 4 mph ()    
Max Wind Speed 8 mph    
Max Gust Speed -    
Visibility 3.1 miles    
Events      
Averages and records for this station are not official NWS values.
T = Trace of Precipitation, MM = Missing Value Source: Averaged Metar Reports

Daily Weather History Graph

Daily Weather History Graph

Search for Another Location

Airport:

Trip Planner

Search our weather history database for the weather conditions in past years. The results will help you decide how hot, cold, wet, or windy it might be!

Date:

Astronomy

Feb. 13, 2013 Rise Set
Actual Time 6:29 AM EET 5:16 PM EET
Civil Twilight 6:03 AM EET 5:43 PM EET
Nautical Twilight 5:32 AM EET 6:13 PM EET
Astronomical Twilight 5:02 AM EET 6:44 PM EET
Moon 7:54 AM EET (2/13) 8:51 PM EET (2/13)
Length of Visible Light 11h 40m
Length of Day
10h 47m
Waxing Crescent, 11% of the Moon is Illuminated
Feb 13
Waxing Crescent
Feb 17
First Quarter
Feb 25
Full
Mar 4
Last Quarter
Mar 11
New

Hourly Weather History & Observations

Time (EET) Temp. Windchill Dew Point Humidity Pressure Visibility Wind Dir Wind Speed Gust Speed Precip Events Conditions
12:20 AM 48.2 °F - 44.6 °F 87% 30.12 in 3.1 mi Calm Calm - N/A   Mist
12:50 AM 46.4 °F 45.2 °F 42.8 °F 87% 30.12 in 3.1 mi SSW 3.5 mph - N/A   Mist
1:20 AM 46.4 °F 45.2 °F 44.6 °F 93% 30.15 in 3.1 mi WNW 3.5 mph - N/A   Mist
1:50 AM 46.4 °F 45.2 °F 44.6 °F 93% 30.15 in 3.1 mi NW 3.5 mph - N/A   Mist
2:50 AM 44.6 °F 40.7 °F 41.0 °F 87% 30.15 in 3.1 mi NE 6.9 mph - N/A   Mist
3:20 AM 46.4 °F 44.3 °F 44.6 °F 93% 30.15 in 3.1 mi NE 4.6 mph - N/A   Mist
3:50 AM 44.6 °F 40.2 °F 41.0 °F 87% 30.12 in 3.1 mi NE 8.1 mph - N/A   Mist
4:20 AM 44.6 °F 42.2 °F 42.8 °F 93% 30.15 in 3.1 mi North 4.6 mph - N/A   Mist
4:50 AM 44.6 °F 42.2 °F 42.8 °F 93% 30.15 in 3.1 mi North 4.6 mph - N/A   Mist
5:20 AM 46.4 °F 44.3 °F 42.8 °F 87% 30.15 in 3.1 mi North 4.6 mph - N/A   Mist
5:50 AM 44.6 °F - 39.2 °F 81% 30.15 in 3.1 mi Calm Calm - N/A   Mist
6:20 AM 44.6 °F - 41.0 °F 87% 30.15 in 3.1 mi Calm Calm - N/A   Mist
6:50 AM 42.8 °F 38.6 °F 39.2 °F 87% 30.15 in 3.1 mi NNE 6.9 mph - N/A   Mist
7:20 AM 46.4 °F 43.5 °F 42.8 °F 87% 30.18 in 3.1 mi NNE 5.8 mph - N/A   Mist
7:50 AM 50.0 °F - 44.6 °F 82% 30.18 in 3.1 mi North 4.6 mph - N/A   Mist
8:20 AM 53.6 °F - 41.0 °F 62% 30.18 in - NNE 5.8 mph - N/A   Clear
8:50 AM 55.4 °F - 39.2 °F 54% 30.21 in - North 8.1 mph - N/A   Clear
9:20 AM 57.2 °F - 39.2 °F 51% 30.21 in - NNE 6.9 mph - N/A   Clear
9:50 AM 59.0 °F - 41.0 °F 51% 30.18 in - NNE 6.9 mph - N/A   Clear
10:20 AM 59.0 °F - 41.0 °F 51% 30.18 in - NE 6.9 mph - N/A   Clear
10:50 AM 60.8 °F - 42.8 °F 52% 30.18 in - NE 5.8 mph - N/A   Clear
11:20 AM 62.6 °F - 42.8 °F 48% 30.18 in - East 4.6 mph - N/A   Clear
11:50 AM 62.6 °F - 42.8 °F 48% 30.18 in - South 3.5 mph - N/A   Clear
12:20 PM 64.4 °F - 41.0 °F 42% 30.15 in - ESE 5.8 mph - N/A   Clear
12:50 PM 64.4 °F - 41.0 °F 42% 30.15 in - Variable 3.5 mph - N/A   Clear
1:20 PM 64.4 °F - 41.0 °F 42% 30.15 in - Variable 3.5 mph - N/A   Clear
1:50 PM 64.4 °F - 41.0 °F 42% 30.15 in - Variable 4.6 mph - N/A   Clear
2:20 PM 64.4 °F - 41.0 °F 42% 30.12 in - Variable 3.5 mph - N/A   Clear
2:50 PM 66.2 °F - 37.4 °F 35% 30.12 in - NE 5.8 mph - N/A   Clear
3:20 PM 66.2 °F - 37.4 °F 35% 30.12 in - NNE 3.5 mph - N/A   Clear
3:50 PM 64.4 °F - 35.6 °F 34% 30.12 in - NE 4.6 mph - N/A   Clear
4:20 PM 64.4 °F - 35.6 °F 34% 30.12 in 4.3 mi Variable 2.3 mph - N/A   Unknown
4:50 PM 60.8 °F - 39.2 °F 45% 30.12 in 3.1 mi NNE 4.6 mph - N/A   Haze
5:20 PM 59.0 °F - 37.4 °F 45% 30.12 in 3.1 mi NNE 4.6 mph - N/A   Haze
5:50 PM 59.0 °F - 39.2 °F 48% 30.12 in 3.1 mi North 3.5 mph - N/A   Haze
6:20 PM 57.2 °F - 39.2 °F 51% 30.12 in 3.1 mi Variable 2.3 mph - N/A   Haze
6:50 PM 55.4 °F - 41.0 °F 58% 30.12 in 3.1 mi Variable 2.3 mph - N/A   Haze
7:20 PM 53.6 °F - 39.2 °F 58% 30.12 in 3.1 mi North 3.5 mph - N/A   Haze
7:50 PM 53.6 °F - 41.0 °F 62% 30.15 in 3.1 mi Variable 2.3 mph - N/A   Haze
8:20 PM 53.6 °F - 41.0 °F 62% 30.12 in 3.1 mi NNW 3.5 mph - N/A   Haze
8:50 PM 53.6 °F - 41.0 °F 62% 30.15 in 3.1 mi North 3.5 mph - N/A   Haze
9:20 PM 53.6 °F - 41.0 °F 62% 30.15 in 3.1 mi North 3.5 mph - N/A   Haze
9:50 PM 51.8 °F - 41.0 °F 67% 30.15 in 3.1 mi North 3.5 mph - N/A   Haze
10:20 PM 50.0 °F - 41.0 °F 71% 30.15 in 3.1 mi North 2.3 mph - N/A   Haze
10:50 PM 48.2 °F - 39.2 °F 71% 30.12 in 3.1 mi North 2.3 mph - N/A   Mist
11:20 PM 50.0 °F - 41.0 °F 71% 30.12 in 3.1 mi North 2.3 mph - N/A   Mist
11:50 PM 50.0 °F - 41.0 °F 71% 30.12 in 3.1 mi North 3.5 mph - N/A   Mist